Weather History for Ord, NE

Change the Weather History Date:

Friday, February 3, 2012

  Actual Average Record
Temperature  
Mean Temperature 37 °F 26 °F  
Max Temperature 42 °F 38 °F 61 °F (2005)
Min Temperature 31 °F 13 °F -7 °F (2004)
Degree Days  
Heating Degree Days 28    
Month to date heating degree days 87  
Cooling Degree Days 0    
Month to date cooling degree days 0  
Year to date cooling degree days 0  
Moisture  
Dew Point 31 °F    
Average Humidity 76    
Maximum Humidity 96    
Minimum Humidity 55    
Precipitation  
Precipitation 0.18 in 0.01 in 0.51 in (1995)
Month to date precipitation 0.18 0.05  
Year to date precipitation 0.31 0.42  
Sea Level Pressure  
Sea Level Pressure 30.24 in    
Wind  
Wind Speed 14 mph (NNE)    
Max Wind Speed 25 mph    
Max Gust Speed 35 mph    
Visibility 3 miles    
Events Rain , Snow    
T = Trace of Precipitation, MM = Missing Value Source: NWS Daily Summary

Daily Weather History Graph

Daily Weather History Graph

Search for Another Location

Airport:

Trip Planner

Search our weather history database for the weather conditions in past years. The results will help you decide how hot, cold, wet, or windy it might be!

Date:

Astronomy

Feb. 03, 2012 Rise Set
Actual Time 7:46 AM CST 5:53 PM CST
Civil Twilight 7:16 AM CST 6:22 PM CST
Nautical Twilight 6:43 AM CST 6:55 PM CST
Astronomical Twilight 6:11 AM CST 7:28 PM CST
Moon 1:54 PM CST (2/3) 4:24 AM CST (2/3)
Length of Visible Light 11h 05m
Length of Day
10h 07m
Waxing Gibbous, 82% of the Moon is Illuminated
Feb 3
Waxing Gibbous
Feb 7
Full
Feb 14
Last Quarter
Feb 21
New
Feb 29
First Quarter

Hourly Weather History & Observations

Time (CST) Temp. Windchill Dew Point Humidity Pressure Visibility Wind Dir Wind Speed Gust Speed Precip Events Conditions
12:53 AM 37.0 °F 33.3 °F 26.1 °F 65% 30.20 in 10.0 mi NNW 4.6 mph - N/A   Overcast
1:53 AM 37.0 °F 33.3 °F 26.1 °F 65% 30.19 in 10.0 mi NNW 4.6 mph - N/A   Overcast
2:53 AM 39.0 °F 36.8 °F 27.0 °F 62% 30.19 in 10.0 mi Variable 3.5 mph - 0.00 in   Overcast
3:53 AM 39.9 °F 35.8 °F 27.0 °F 60% 30.16 in 10.0 mi East 5.8 mph - N/A   Overcast
4:53 AM 41.0 °F - 27.0 °F 57% 30.19 in 10.0 mi Calm Calm - N/A   Overcast
5:53 AM 41.0 °F 35.2 °F 28.0 °F 60% 30.20 in 10.0 mi NNE 9.2 mph - N/A   Overcast
6:53 AM 37.0 °F 29.3 °F 30.9 °F 79% 30.23 in 7.0 mi North 11.5 mph - 0.01 in Rain Light Rain
7:53 AM 36.0 °F 25.6 °F 30.9 °F 82% 30.24 in 10.0 mi North 18.4 mph 25.3 mph 0.01 in Rain Light Rain
8:53 AM 36.0 °F 25.6 °F 32.0 °F 86% 30.26 in 7.0 mi NNE 18.4 mph 24.2 mph 0.01 in Rain Light Rain
9:53 AM 35.1 °F 25.9 °F 32.0 °F 89% 30.28 in 7.0 mi NNE 13.8 mph - 0.01 in Rain Light Rain
10:20 AM 35.6 °F 27.5 °F 32.0 °F 87% 30.23 in 6.0 mi NNE 11.5 mph - 0.00 in Rain Light Rain
10:53 AM 35.1 °F 25.9 °F 32.0 °F 89% 30.30 in 4.0 mi NNE 13.8 mph - 0.01 in Snow Light Snow
11:08 AM 33.8 °F 24.8 °F 32.0 °F 93% 30.25 in 4.0 mi NNE 12.7 mph - 0.00 in Rain Light Rain
11:19 AM 33.8 °F 25.3 °F 32.0 °F 93% 30.24 in 2.5 mi NNE 11.5 mph - 0.00 in Rain Light Rain
11:36 AM 33.8 °F 24.8 °F 33.8 °F 100% 30.24 in 1.5 mi NNE 12.7 mph - 0.01 in Rain Light Rain
11:53 AM 34.0 °F 25.5 °F 32.0 °F 92% 30.30 in 2.0 mi NNE 11.5 mph - 0.02 in Rain Light Rain
12:53 PM 36.0 °F 26.7 °F 34.0 °F 93% 30.26 in 2.5 mi NNE 15.0 mph - 0.01 in Rain Light Rain
1:02 PM 35.6 °F 26.6 °F 33.8 °F 93% 30.21 in 1.8 mi NNE 13.8 mph - 0.00 in Rain Light Rain
1:29 PM 35.6 °F 27.1 °F 33.8 °F 93% 30.20 in 1.8 mi NNE 12.7 mph - 0.00 in   Overcast
1:51 PM 35.6 °F 26.6 °F 33.8 °F 93% 30.20 in 2.0 mi NNE 13.8 mph 19.6 mph 0.00 in Rain Light Rain
1:53 PM 36.0 °F 27.1 °F 34.0 °F 93% 30.26 in 2.0 mi NNE 13.8 mph 19.6 mph 0.00 in Rain Light Rain
2:25 PM 35.6 °F 26.2 °F 33.8 °F 93% 30.20 in 1.8 mi NNE 15.0 mph - 0.00 in   Overcast
2:53 PM 35.1 °F 25.5 °F 33.1 °F 92% 30.26 in 1.2 mi NNE 15.0 mph 24.2 mph 0.01 in Snow Light Snow
3:20 PM 35.6 °F 25.5 °F 33.8 °F 93% 30.20 in 2.5 mi NNE 17.3 mph 23.0 mph 0.00 in Rain Light Rain
3:28 PM 35.6 °F 25.9 °F 33.8 °F 93% 30.20 in 3.0 mi NNE 16.1 mph 24.2 mph 0.00 in   Overcast
3:53 PM 35.1 °F 24.5 °F 33.1 °F 92% 30.26 in 2.5 mi NNE 18.4 mph - 0.00 in   Overcast
4:53 PM 33.1 °F 22.6 °F 30.9 °F 92% 30.27 in 2.0 mi NNE 16.1 mph 24.2 mph 0.01 in Snow Light Snow
5:01 PM 33.8 °F 22.5 °F 30.2 °F 87% 30.22 in 1.2 mi NNE 19.6 mph 24.2 mph 0.00 in Snow Light Snow
5:09 PM 33.8 °F 21.9 °F 30.2 °F 87% 30.22 in 1.0 mi NNE 21.9 mph 26.5 mph 0.00 in Snow Light Snow
5:53 PM 33.1 °F 21.2 °F 30.9 °F 92% 30.28 in 1.8 mi NNE 20.7 mph 27.6 mph 0.01 in Snow Light Snow
5:58 PM 33.8 °F 22.8 °F 30.2 °F 87% 30.23 in 3.0 mi NNE 18.4 mph 27.6 mph 0.00 in Snow Light Snow
6:53 PM 33.1 °F 20.9 °F 30.0 °F 89% 30.29 in 3.0 mi NNE 21.9 mph 29.9 mph 0.00 in Snow Light Snow
7:06 PM 33.8 °F 21.9 °F 30.2 °F 87% 30.23 in 2.0 mi NNE 21.9 mph 29.9 mph 0.00 in Snow Light Snow
7:25 PM 33.8 °F 21.6 °F 30.2 °F 87% 30.24 in 1.5 mi NNE 23.0 mph 28.8 mph 0.00 in Snow Light Snow
7:53 PM 32.0 °F 20.5 °F 30.0 °F 92% 30.30 in 1.5 mi NNE 18.4 mph 28.8 mph 0.00 in Snow Light Snow
8:53 PM 32.0 °F 20.5 °F 30.9 °F 96% 30.30 in 1.5 mi NNE 18.4 mph - 0.00 in Snow Light Snow
9:09 PM 32.0 °F 20.8 °F 30.2 °F 93% 30.24 in 0.8 mi NNE 17.3 mph - 0.01 in Snow Light Snow
9:21 PM 33.8 °F 23.2 °F 30.2 °F 87% 30.24 in 1.0 mi NNE 17.3 mph 26.5 mph 0.01 in Snow Light Snow
9:33 PM 32.0 °F 21.6 °F 30.2 °F 93% 30.24 in 0.8 mi NNE 15.0 mph 23.0 mph 0.02 in Snow Light Snow
9:44 PM 33.8 °F 22.8 °F 30.2 °F 87% 30.24 in 1.0 mi NNE 18.4 mph - 0.02 in Snow Light Snow
9:53 PM 33.1 °F 21.9 °F 30.9 °F 92% 30.30 in 1.0 mi NNE 18.4 mph - 0.02 in Snow Light Snow
10:10 PM 33.8 °F 23.9 °F 30.2 °F 87% 30.24 in 1.2 mi NNE 15.0 mph 24.2 mph 0.01 in Snow Light Snow
10:27 PM 33.8 °F 22.5 °F 30.2 °F 87% 30.24 in 1.0 mi North 19.6 mph - 0.01 in Snow Light Snow
10:50 PM 32.0 °F 21.6 °F 30.2 °F 93% 30.25 in 0.8 mi North 15.0 mph - 0.02 in Snow Light Snow
10:53 PM 32.0 °F 20.8 °F 30.0 °F 92% 30.31 in 1.0 mi North 17.3 mph - 0.02 in Snow Light Snow
10:59 PM 32.0 °F 21.6 °F 30.2 °F 93% 30.25 in 1.2 mi North 15.0 mph - 0.00 in Snow Light Snow
11:17 PM 32.0 °F 21.6 °F 30.2 °F 93% 30.25 in 1.2 mi NNE 15.0 mph - 0.01 in Snow Light Snow
11:22 PM 32.0 °F 20.8 °F 30.2 °F 93% 30.25 in 1.0 mi North 17.3 mph - 0.01 in Snow Light Snow
11:39 PM 30.2 °F 18.9 °F 30.2 °F 100% 30.26 in 0.8 mi North 16.1 mph - 0.02 in Snow Light Snow
11:53 PM 30.9 °F 20.2 °F 28.9 °F 92% 30.33 in 0.8 mi North 15.0 mph 23.0 mph 0.02 in Snow Light Snow